VK1ET-13 Weather Reports


time (UTC)temp
F
wind
direction
speed
knots
gust
knots
rain 1hr
in
rain 24hr
in
rain mn
in
humidity
%
barometer
mb
20260507120518 45 321 3.5 7.0 0.00 0.00 0.00 69 1019.6
20260507115527 46 336 3.5 6.1 0.00 0.00 0.00 67 1019.8
20260507114537 46 300 4.3 7.0 0.00 0.00 0.00 65 1019.6
20260507113525 46 274 3.5 7.8 0.00 0.00 0.00 65 1019.6
20260507112534 46 294 5.2 9.6 0.00 0.00 0.00 66 1019.8
20260507111524 46 305 4.3 7.8 0.00 0.00 0.00 67 1019.6
20260507110532 46 315 4.3 7.8 0.00 0.00 0.00 67 1019.7
20260507105522 46 308 3.5 7.0 0.00 0.00 0.00 67 1019.7
20260507104531 46 308 4.3 7.0 0.00 0.00 0.00 65 1019.5
20260507103528 46 313 4.3 8.7 0.00 0.00 0.00 67 1019.4
20260507102529 46 332 5.2 9.6 0.00 0.00 0.00 67 1019.4
20260507101518 47 336 4.3 7.0 0.00 0.00 0.00 66 1019.2
20260507100528 47 318 3.5 7.0 0.00 0.00 0.00 65 1019.2
20260507095531 47 308 3.5 7.8 0.00 0.00 0.00 64 1019.1
20260507094533 47 291 3.5 8.7 0.00 0.00 0.00 64 1019.1
20260507093535 47 298 4.3 9.6 0.00 0.00 0.00 64 1018.8
20260507092532 47 281 3.5 7.8 0.00 0.00 0.00 65 1018.9
20260507091533 47 270 2.6 6.1 0.00 0.00 0.00 65 1018.7
20260507090529 46 284 3.5 7.8 0.00 0.00 0.00 66 1018.6
20260507085531 47 284 3.5 7.8 0.00 0.00 0.00 66 1018.5
20260507084520 46 287 2.6 7.0 0.00 0.00 0.00 67 1018.6
20260507083529 47 269 0.9 2.6 0.00 0.00 0.00 66 1018.6
20260507082518 48 280 2.6 6.1 0.00 0.00 0.00 64 1018.5
20260507081527 48 281 4.3 9.6 0.00 0.00 0.00 62 1018.4
20260507080531 48 277 2.6 7.0 0.00 0.00 0.00 63 1018.2
20260507075526 48 282 3.5 6.1 0.00 0.00 0.00 63 1017.8
20260507074535 48 285 3.5 8.7 0.00 0.00 0.00 62 1017.7
20260507073524 48 279 3.5 7.8 0.00 0.00 0.00 62 1017.4
20260507072535 48 254 4.3 10.4 0.00 0.00 0.00 62 1017.4
20260507071523 48 262 3.5 8.7 0.00 0.00 0.00 62 1017.3
20260507070532 49 272 4.3 8.7 0.00 0.00 0.00 61 1017.2
20260507065521 50 272 4.3 10.4 0.00 0.00 0.00 59 1017.1
20260507064533 50 266 6.1 13.0 0.00 0.00 0.00 57 1016.9
20260507063519 51 274 7.8 13.9 0.00 0.00 0.00 56 1016.9
20260507062529 51 267 4.3 8.7 0.00 0.00 0.00 54 1016.7
20260507061525 51 276 4.3 7.8 0.00 0.00 0.00 53 1016.7
20260507060534 52 271 5.2 13.0 0.00 0.00 0.00 53 1016.5
20260507055517 52 262 5.2 12.2 0.00 0.00 0.00 53 1016.2
20260507054526 52 263 6.1 13.0 0.00 0.00 0.00 52 1016.4
20260507053535 51 231 5.2 9.6 0.00 0.00 0.00 54 1016.2
20260507052524 51 258 6.1 13.0 0.00 0.00 0.00 53 1015.9
20260507051535 51 251 6.1 13.0 0.00 0.00 0.00 51 1015.8
20260507050523 51 267 6.1 10.4 0.00 0.00 0.00 52 1015.8
20260507045533 52 259 7.0 12.2 0.00 0.00 0.00 48 1015.9
20260507044521 51 252 3.5 7.8 0.00 0.00 0.00 51 1015.8
20260507043531 52 223 7.0 10.4 0.00 0.00 0.00 48 1015.6
20260507042519 52 255 5.2 10.4 0.00 0.00 0.00 48 1015.3
20260507041529 53 243 6.1 14.8 0.00 0.00 0.00 48 1015.1
20260507040519 51 243 6.1 12.2 0.00 0.00 0.00 50 1015.1
20260507035534 52 236 6.1 13.0 0.00 0.00 0.00 49 1015.1
20260507034543 51 249 6.1 13.9 0.00 0.00 0.00 49 1015.0
20260507033526 51 237 6.1 11.3 0.00 0.00 0.00 50 1015.1
20260507032534 51 239 5.2 13.0 0.00 0.00 0.00 52 1015.0
20260507031523 52 236 5.2 8.7 0.00 0.00 0.00 51 1014.9
20260507030540 52 225 6.1 10.4 0.00 0.00 0.00 51 1014.8
20260507025522 52 262 4.3 11.3 0.00 0.00 0.00 51 1015.0
20260507024532 51 238 5.2 10.4 0.00 0.00 0.00 51 1014.8
20260507023520 50 211 7.0 13.0 0.00 0.00 0.00 50 1014.8
20260507022531 51 202 7.0 12.2 0.00 0.00 0.00 51 1014.9
20260507021520 51 225 5.2 8.7 0.00 0.00 0.00 51 1014.9
20260507020531 50 226 5.2 10.4 0.00 0.00 0.00 52 1015.0
20260507015518 51 265 7.0 13.0 0.00 0.00 0.00 51 1015.1
20260507014528 50 240 5.2 8.7 0.00 0.00 0.00 52 1015.2
20260507013537 50 227 5.2 11.3 0.00 0.00 0.00 51 1015.4
20260507012525 50 229 3.5 7.0 0.00 0.00 0.00 52 1015.3
20260507011535 50 248 3.5 9.6 0.00 0.00 0.00 53 1015.4
20260507010523 51 228 5.2 8.7 0.00 0.00 0.00 51 1015.5
20260507005533 51 271 5.2 10.4 0.00 0.00 0.00 52 1015.3
20260507004522 50 259 4.3 10.4 0.00 0.00 0.00 52 1015.1
20260507003531 50 235 7.0 16.5 0.00 0.00 0.00 52 1015.0
20260507002522 50 251 5.2 10.4 0.00 0.00 0.00 52 1015.0
20260507001529 49 261 4.3 13.9 0.00 0.00 0.00 53 1014.9
20260507000518 49 241 6.1 12.2 0.00 0.00 0.00 53 1015.2
20260506235528 50 206 4.3 8.7 0.00 0.00 0.00 54 1015.1
20260506234517 49 236 7.0 13.9 0.00 0.00 0.00 54 1014.8
20260506233527 49 264 6.1 11.3 0.00 0.00 0.00 55 1014.5
20260506232537 48 264 5.2 11.3 0.00 0.00 0.00 56 1014.8
20260506231524 48 266 5.2 11.3 0.00 0.00 0.00 57 1014.9
20260506230533 48 266 5.2 12.2 0.00 0.00 0.00 58 1014.8
20260506225529 48 246 5.2 9.6 0.00 0.00 0.00 58 1014.7
20260506224532 48 265 7.0 13.9 0.00 0.00 0.00 59 1014.8
20260506223521 48 247 6.1 13.0 0.00 0.00 0.00 59 1014.7
20260506222602 48 270 4.3 9.6 0.00 0.00 0.00 58 1014.4
20260506221518 48 269 5.2 11.3 0.00 0.00 0.00 59 1014.2
20260506220527 48 268 5.2 11.3 0.00 0.00 0.00 58 1013.9
20260506215543 48 271 6.1 11.3 0.00 0.00 0.00 58 1013.5
20260506214524 48 274 4.3 7.0 0.00 0.00 0.00 60 1013.5